Track STARLINK-4197 now! 10-day predictions STARLINK-4197 is classified as:
1 52849U 22062V 24324.50058798 .00001951 00000-0 14058-3 0 9994 2 52849 53.2160 357.3262 0001386 85.3835 274.7315 15.08847495134182